ARIANE 44L DEB, 28041

Orbit data source: Space-Track

ARIANE 44L DEB, 28041 is space debris in HEO originally from a launch on Tue, 29 Oct 1991 UTC launched from the French Guiana (FRGUI). Debris objects in space refer to the collection of defunct objects orbiting the Earth. Examples of debris include non-operational satellites, rocket bodies, and fragments generated from explosions, collisions, or faulty payload assembly.

Loading next visibility...
Identifier
28041, 1991-075L
Orbit
HEO
Country
Flag of FRFR
Related business
Manufacturer
Unknown
Mission
Spacecraft
Bus & Motor
Unknown
Mass
Unknown
Launch date (UTC)
1991-10-29 (35 years ago)
Launch vehicle
Unknown
Launch site
French Guiana (FRGUI)
Object type
Payload
Rocket body
Debris
Shape & HBR
Unknown shape, 1.1 m
Radar Cross Section
Large (>1 m²)

Expand to show TLE details & history
Last TLE update: 2 days ago

TLE from 2 days ago
0 ARIANE 44L DEB
1 28041U 91075L   26171.23845009  .00000068  00000-0  35237-2 0  9991
2 28041   7.1585 303.8796 6613484 156.4771 235.3576  2.85120907251487
Epoch: 2026-06-20T05:43Z
TLE epoch observation values (Epoch: 2026-06-20T05:43:22.087Z)
Latitude
-0.97147°
Longitude
-58.16026°
Altitude
26,139.318 km
Speed
2.354 km/s
True Right ascension
19h 44m 33s
True Declination
0° 58' 13"
Sunlit
Object was in daylight at epoch
Visualization orbit readout
Latitude
Unknown
Longitude
Unknown
Altitude
Unknown
Speed
Unknown
Apparent Right ascension
Unknown
Apparent Declination
Unknown
Sunlit
N/A
Visualization observer readout
Local Sidereal Time
23:07:47
Azimuth
Unknown
Elevation
Unknown
Doppler factor
Unknown
Orbital elements
Apogee altitude
28,531.374 km
Perigee altitude
737.867 km
Semi-major axis
21,012.757 km
Eccentricity
0.66135
Inclination
7.1585°
RAAN
303.8796°
Arg. of periapsis
156.4771°
True anomaly
195.77089°
Mean anomaly
235.3576°
Eccentric anomaly
214.10879°
Mean motion
0.71256 °/min
Orbital period
505.22 mins
BSTAR
0.0035237
Loading maneuver chart data...
Computing Atmospheric mass density...
Loading historical data...
Loading historical data...
Loading historical data...
Loading historical data...
Loading historical data...
Loading historical data...
Loading historical data...

Documentation

Showing up to 5 results
|